RH
48 52 47 47 45 47 41 40 38 36 35 35 36 43 46 50 44 41 38 37 32 29 26 28 27 28 27 26 24 25 24 38 56 52 62 60 60 64 57 70 65 60 31 25 24
49 50 46 41 41 40 37 34 33 33 35 39 40 42 50 53 48 45 42 39 34 31 31 33 33 32 28 27 28 25 24 47 54 58 60 62 58 53 60 69 56 50 31 21 22
44 43 48 45 43 39 36 35 34 32 32 37 45 48 48 47 55 51 44 38 37 37 40 38 32 27 24 24 26 27 49 60 65 59 52 46 43 44 45 42 47 48 45 35 24
43 41 38 35 33 33 31 28 29 30 34 38 38 40 46 46 43 44 38 36 33 29 23 19 18 20 21 24 27 33 56 54 61 57 44 40 40 42 41 37 39 31 34 29 23
37 37 39 39 34 31 28 24 22 22 26 32 36 27 23 23 27 29 28 25 21 21 18 16 19 19 23 24 26 47 61 62 58 51 40 39 42 40 22 25 30 25 25 30 26
32 31 29 30 29 27 27 26 21 20 22 24 26 25 23 18 17 16 15 15 19 19 17 17 18 21 27 29 48 69 65 60 55 49 40 42 34 21 18 15 15 16 17 21 20
26 28 28 29 27 23 21 20 17 15 15 19 21 21 18 16 14 14 15 18 17 16 17 18 21 29 29 49 72 68 56 58 50 38 37 27 21 14 10 9 9 10 10 13 14
24 24 22 24 23 21 19 18 17 15 13 14 14 14 14 15 15 18 18 18 19 19 20 26 31 27 42 74 76 52 51 45 40 36 24 17 11 8 5 4 4 4 5 6 9
16 18 20 17 15 14 14 14 15 13 13 14 15 17 18 20 22 22 21 20 21 23 24 24 29 41 62 69 54 49 47 40 32 20 15 10 8 4 3 2 2 3 4 5 6
13 12 12 13 13 13 17 18 17 16 15 17 20 22 22 24 24 22 20 21 22 23 25 26 38 53 66 56 49 43 38 38 26 16 11 7 4 3 2 2 2 2 4 5 7
14 16 16 14 14 17 20 24 22 22 22 22 22 24 25 24 22 20 18 19 20 23 26 37 52 55 55 46 39 42 40 40 21 14 9 5 4 3 2 2 2 2 3 5 7
14 14 16 16 17 18 18 25 26 25 25 25 24 25 25 24 21 18 18 22 29 33 39 57 54 55 53 40 42 42 43 35 20 11 7 5 3 3 3 3 2 3 4 6 8
14 15 16 18 16 17 18 21 29 27 28 25 25 26 24 20 20 18 24 35 41 57 57 58 54 53 42 46 49 48 46 26 16 12 6 6 3 4 4 3 3 3 5 8 8
9 10 10 14 19 20 19 20 29 28 29 26 27 25 20 18 18 26 38 44 61 57 62 61 55 47 43 52 48 53 42 22 16 10 7 7 3 5 5 4 3 3 6 11 13
9 10 10 11 14 19 18 20 26 29 27 27 24 20 18 17 21 35 48 51 54 57 66 57 43 44 50 50 54 53 30 20 18 10 8 7 5 5 5 5 3 3 5 10 22
9 10 10 11 13 20 19 23 28 31 29 26 22 20 18 21 30 42 50 44 70 70 60 52 49 54 54 50 51 44 29 19 17 10 9 8 5 5 6 6 4 3 4 9 17
10 11 11 12 16 19 20 27 30 30 26 23 21 20 18 26 39 66 60 67 70 57 55 58 60 63 45 54 55 46 33 19 16 11 10 8 6 6 6 6 6 4 4 8 11
11 11 13 14 15 17 23 28 31 29 25 23 20 19 26 38 58 88 81 79 74 54 55 60 68 56 47 49 42 42 30 18 15 11 10 7 6 6 6 6 6 4 3 7 12
14 13 15 16 18 25 30 31 29 26 23 20 18 24 37 64 81 90 79 71 63 56 60 63 68 47 45 35 38 38 28 16 14 11 11 7 6 6 5 5 6 5 4 5 14
15 16 16 20 25 29 30 30 26 22 18 18 21 29 60 76 86 89 73 63 57 59 68 66 64 52 45 39 36 31 23 13 13 10 10 8 6 5 6 5 5 6 4 4 10
16 18 18 21 24 26 26 24 21 18 18 20 27 44 82 82 96 85 75 69 63 69 72 63 58 39 41 44 35 25 17 12 13 10 9 8 6 4 7 6 6 8 7 5 5
17 18 20 22 22 22 20 18 18 19 20 24 47 85 100 99 85 96 78 74 70 63 64 58 46 35 45 43 32 23 13 11 11 8 9 8 6 5 6 6 6 6 7 6 6
17 18 18 17 16 15 15 15 19 27 37 62 90 100 100 93 77 81 74 80 75 66 62 46 37 36 41 43 27 21 11 11 11 8 9 7 7 4 5 5 5 6 6 6 6
18 19 21 21 22 21 23 29 39 71 96 96 99 97 87 85 85 81 82 77 71 65 52 39 42 47 54 39 18 17 10 11 10 7 8 7 8 4 4 3 5 5 5 6 6
66 60 56 53 54 61 61 69 86 96 99 90 93 87 92 84 92 93 84 76 79 65 56 53 42 42 62 42 18 18 11 10 10 7 6 7 7 5 3 3 5 5 5 5 5
48 74 89 97 98 89 97 100 94 97 95 93 96 94 91 92 94 81 83 75 74 74 56 46 37 41 62 35 18 17 12 10 10 6 5 6 6 3 3 3 5 5 4 5 5
50 60 66 83 85 88 95 96 90 88 93 93 94 92 83 91 86 87 77 77 66 68 63 45 34 40 51 28 17 16 13 11 10 6 5 5 5 2 3 4 5 4 4 4 5
Wind_Speed
22 23 23 23 23 25 27 29 29 30 31 33 33 34 35 35 36 38 40 40 42 44 45 48 50 54 58 59 59 61 62 62 65 68 67 72 74 78 73 74 81 87 72 72 67
29 30 30 31 30 31 32 32 31 32 34 36 37 38 38 39 41 41 45 47 48 50 53 55 58 60 61 63 65 68 67 67 69 73 76 78 78 82 82 82 90 94 84 79 79
32 32 34 35 35 37 38 38 38 38 38 38 40 41 43 45 46 47 49 51 54 57 60 63 66 67 67 67 69 70 70 73 74 80 84 86 86 91 92 94 101 102 104 101 89
35 37 37 36 36 37 39 38 40 42 43 42 42 43 47 50 49 52 53 55 58 60 63 66 67 68 69 69 70 71 74 77 80 88 93 96 96 101 107 105 114 110 111 108 97
39 40 41 41 40 40 41 43 43 44 45 45 47 47 50 52 54 57 58 60 62 63 67 67 68 69 69 70 72 75 77 83 89 93 100 103 108 119 112 114 120 111 107 106 96
45 44 44 45 46 47 48 47 48 48 48 48 49 52 53 54 57 59 61 63 65 67 69 68 68 69 69 73 74 78 83 90 97 105 106 112 118 123 115 112 100 98 93 94 92
49 49 50 50 50 50 49 50 50 49 50 50 52 55 55 58 59 60 60 61 64 68 68 68 67 68 71 73 77 84 87 99 107 113 120 120 118 111 95 87 83 84 86 91 92
53 52 52 52 53 55 56 56 53 52 51 50 54 56 57 58 57 57 58 59 63 67 66 64 65 70 72 76 82 89 94 104 115 115 119 114 100 87 81 73 74 78 84 89 90
58 57 57 56 56 56 56 54 55 54 52 52 52 52 51 51 51 53 56 60 65 63 61 63 67 70 74 80 87 92 104 114 114 114 106 99 86 74 68 65 63 71 78 87 89
63 62 61 60 59 57 54 53 53 52 49 47 47 46 46 47 50 54 58 60 60 61 63 65 68 72 77 83 91 99 105 108 105 103 99 87 76 65 58 55 58 65 72 82 88
63 63 59 57 56 53 52 50 48 47 45 44 43 44 47 50 55 58 60 63 66 66 65 66 70 74 80 86 96 101 111 107 101 98 89 79 67 57 51 50 52 63 72 81 88
60 59 60 58 55 53 51 50 48 45 42 43 45 48 52 55 58 60 63 67 65 63 64 68 72 77 84 92 102 107 119 107 100 92 84 75 62 53 48 44 47 59 67 78 85
63 59 54 55 56 55 53 50 47 44 43 45 46 50 54 57 60 62 66 61 58 60 65 69 75 80 89 97 100 113 121 101 91 89 81 71 58 49 44 41 47 59 67 75 83
51 53 55 51 48 47 50 50 46 44 43 45 49 53 55 57 59 62 59 56 59 63 66 72 78 85 92 99 105 114 116 99 89 81 78 64 59 46 42 39 46 58 68 73 82
35 37 40 44 46 43 41 45 45 43 42 45 47 51 54 58 61 61 55 56 62 65 71 76 84 90 97 100 109 118 106 96 85 80 70 64 53 44 40 37 44 56 65 72 80
29 27 29 33 37 39 38 40 39 40 40 45 49 53 57 59 62 57 56 59 63 70 74 80 88 94 98 105 110 112 107 92 80 78 67 61 50 49 41 34 42 54 64 72 79
23 23 23 28 32 35 36 38 37 41 43 46 51 55 58 60 57 56 60 63 67 70 77 83 92 97 101 108 113 116 108 90 75 76 68 58 50 46 41 37 39 52 63 71 79
21 20 19 23 27 31 34 33 37 41 46 50 52 55 56 56 55 59 62 68 73 76 81 86 95 101 105 110 116 118 102 87 74 72 65 61 50 46 44 39 39 47 60 70 78
21 20 21 24 28 31 31 34 38 42 49 52 53 54 55 54 57 60 67 71 75 80 85 90 98 104 111 116 117 115 98 83 72 70 64 60 53 47 43 41 39 43 55 68 76
23 23 24 28 30 32 33 37 42 46 49 52 52 55 53 54 60 65 68 73 78 83 88 94 101 109 115 120 118 112 96 79 70 67 58 57 54 49 41 41 37 42 48 61 74
29 29 29 31 33 35 37 41 44 49 49 51 53 53 53 56 63 67 73 76 82 88 94 100 106 111 120 122 115 106 93 78 71 68 58 47 59 43 34 36 37 39 47 55 69
32 33 33 35 38 40 42 42 47 49 50 53 51 51 55 61 63 71 78 82 86 93 99 105 110 115 122 120 112 105 92 78 73 68 58 50 57 47 33 33 39 42 46 52 65
35 36 38 40 41 43 42 43 45 49 52 48 50 54 59 65 69 74 81 87 94 100 104 106 114 118 120 117 108 101 90 78 74 69 61 54 50 47 39 34 36 42 46 50 58
32 34 37 39 42 42 42 44 47 46 48 51 56 58 63 69 75 80 84 92 98 104 108 110 115 119 121 117 106 99 90 80 75 69 60 53 49 46 36 34 35 41 44 52 57
34 35 37 39 44 46 46 42 44 46 53 58 61 64 69 72 78 84 91 97 105 108 110 114 118 117 122 115 105 98 91 84 78 72 60 51 48 42 34 29 31 39 43 50 57
39 35 37 39 45 45 47 47 51 55 59 62 65 68 73 77 81 89 94 99 106 110 113 116 120 116 119 110 102 94 91 85 79 73 60 49 47 36 29 25 29 37 41 48 55
48 43 42 45 51 54 52 54 56 59 61 65 67 73 78 80 86 93 99 104 108 111 114 119 117 114 115 107 98 92 89 84 78 74 60 50 44 33 27 24 25 34 37 42 52
Wind_Direction
285 283 284 286 284 285 289 292 294 295 297 298 297 297 298 296 296 297 299 298 299 300 300 301 303 303 302 301 301 300 300 296 290 290 287 287 287 287 283 283 284 281 266 246 246
287 287 283 284 283 286 286 289 293 296 296 294 294 294 293 290 290 291 294 297 298 298 299 300 301 302 300 298 298 298 298 293 291 290 289 287 284 285 281 281 282 280 277 253 249
283 285 282 284 283 284 286 288 291 293 295 296 291 290 290 289 289 290 293 296 297 298 299 300 300 299 297 297 295 297 296 294 293 292 292 290 287 284 282 281 276 272 269 267 260
282 282 283 283 286 288 290 291 291 292 292 290 292 292 291 290 290 290 293 295 296 296 298 298 297 295 296 296 295 295 293 295 295 296 295 292 289 286 283 280 276 271 268 265 262
281 283 281 281 283 286 289 291 292 292 289 288 288 289 291 292 291 291 292 293 293 294 297 298 296 297 296 296 296 298 299 299 298 296 294 292 289 283 286 281 275 269 265 262 256
281 282 282 282 283 286 288 289 290 291 290 286 286 288 288 291 292 293 295 295 296 296 298 299 298 297 297 298 301 301 301 300 298 299 295 287 286 290 288 280 273 266 259 253 247
281 281 282 281 282 284 286 286 288 291 289 287 286 286 289 290 292 293 295 297 297 298 299 299 298 298 300 304 303 303 302 303 302 301 294 294 295 290 282 274 264 254 250 244 241
278 278 279 280 281 284 285 285 287 288 289 289 289 289 291 292 294 296 298 300 301 301 300 299 299 301 305 305 303 303 303 305 304 302 300 299 296 288 281 273 260 250 240 238 234
278 276 276 278 280 283 284 285 285 287 287 290 291 293 294 296 299 301 303 303 301 300 298 301 302 305 305 304 307 306 307 310 309 307 306 305 297 289 279 268 255 243 235 231 227
278 277 277 277 279 282 283 284 286 287 287 289 294 297 297 299 301 302 303 305 302 300 303 303 304 304 306 309 309 312 315 322 314 310 310 307 298 291 280 264 250 238 230 227 223
280 279 278 276 276 280 283 284 287 288 287 289 293 294 297 298 301 303 303 304 306 305 303 304 304 307 309 309 312 315 324 323 317 315 313 307 299 292 278 261 245 235 227 223 220
279 276 274 274 275 276 280 282 284 285 281 284 291 294 296 299 302 305 307 307 306 303 304 304 308 310 311 314 316 324 327 325 320 318 316 308 300 292 277 262 247 232 225 221 218
276 274 273 270 270 272 275 278 281 283 281 285 291 295 297 301 303 306 307 306 305 304 305 309 311 312 315 317 322 329 331 324 321 321 318 310 304 297 278 258 238 227 221 220 216
279 274 268 267 268 270 270 273 279 282 280 287 295 298 301 302 303 306 307 305 304 306 310 312 314 316 319 322 329 331 333 327 323 323 319 313 306 296 279 261 238 224 219 216 214
286 275 271 262 260 268 271 270 278 280 282 289 293 298 302 304 306 308 305 305 307 311 313 315 315 319 321 327 332 335 334 330 325 325 321 314 305 297 276 259 238 225 219 215 213
290 281 273 264 258 260 268 273 277 280 285 289 293 298 303 306 308 306 305 309 312 315 317 318 319 321 326 330 335 339 336 332 328 326 321 313 306 295 279 260 240 226 219 215 212
291 285 276 264 259 261 268 274 277 282 285 290 294 299 305 308 308 306 309 313 315 317 319 321 321 324 329 333 336 339 336 333 331 327 320 313 304 294 281 259 241 230 220 215 214
289 283 276 266 264 266 271 273 278 283 289 294 298 302 305 307 306 309 313 315 318 319 320 321 323 328 332 335 337 338 334 334 333 327 320 314 304 294 281 260 242 234 225 217 215
291 284 275 271 273 274 273 277 281 288 294 297 300 303 308 305 308 311 314 317 318 319 321 323 326 329 333 336 337 338 334 335 333 330 323 315 304 292 286 271 247 234 229 219 216
288 281 281 281 281 277 278 282 286 291 296 298 301 305 307 307 309 312 314 316 317 319 322 326 328 331 335 337 338 337 333 335 334 331 325 314 304 295 296 282 263 240 230 226 218
285 283 288 288 287 285 286 290 292 294 297 299 303 307 305 308 312 314 314 316 319 321 324 328 331 333 334 337 338 336 333 334 334 331 327 313 297 308 291 277 264 244 235 226 224
290 286 287 288 288 290 292 292 295 295 298 303 307 306 307 310 314 314 316 319 319 322 326 329 331 335 336 338 338 336 333 334 333 333 328 311 297 306 293 271 257 243 230 225 223
294 289 288 287 287 288 290 293 295 297 303 305 304 307 310 311 314 316 317 319 321 324 327 330 333 335 336 337 338 335 334 334 333 332 330 318 306 305 291 272 258 248 232 221 219
303 299 299 299 298 297 299 299 301 304 305 304 305 307 309 312 315 318 318 320 323 324 326 330 334 336 335 337 339 334 335 334 332 332 332 323 309 311 295 281 254 246 234 224 214
302 300 300 297 296 299 298 301 299 301 302 303 305 310 311 314 318 317 319 322 322 324 327 331 334 336 333 336 338 334 335 333 332 332 333 326 315 311 300 282 253 247 237 225 215
291 291 293 294 293 294 296 300 300 300 303 305 308 312 313 316 316 317 319 320 322 324 326 331 336 337 334 335 337 334 334 332 331 330 334 327 316 315 300 278 253 243 234 223 218
286 286 287 288 290 292 296 299 300 302 305 306 309 312 314 315 316 317 319 321 322 323 326 329 333 335 334 336 336 334 333 331 332 330 334 326 322 317 300 276 251 242 232 223 217